Вернуться в каталог

BREEZE-M DEB

TANK

АктивенHEO
NORAD 36501·DEBRIS·🇷🇺 Russia

Запущен Mar 20, 2010 с Baikonur Cosmodrome

Loading…

Ближайшие Пролёты (ближайшие 24 часа)

TLE

СвежийSource: Space-Track

Эпоха: Sep 14, 2026, 05:53 UTC

1 36501U 10010C   26257.24526996  .00001415  00000-0  24160-3 0  9999
2 36501  49.6608 106.8976 4780960 235.9957  69.2265  5.98037128348100

Отслеживайте BREEZE-M DEB в реальном времени с AllMySat

Download on the App Store